This is the latest recevied weather packets stored in our database for station/object SA6BET-2. If no packets are shown the sender has not sent any weather packets the latest 10 day(s).
| Time | Temp. | Humidity | Pressure | Rain* | Wind** | Luminosity | Snow |
|---|---|---|---|---|---|---|---|
| 1778305773 | 16.11° C | 100% | 1013.1 hPa | - | - | - | - |
| 1778304872 | 15.56° C | 100% | 1012.4 hPa | - | - | - | - |
| 1778303972 | 16.11° C | 100% | 1012.4 hPa | - | - | - | - |
| 1778303072 | 16.67° C | 100% | 1012.2 hPa | - | - | - | - |
| 1778302172 | 16.11° C | 100% | 1012.4 hPa | - | - | - | - |
| 1778301272 | 16.67° C | 100% | 1012.6 hPa | - | - | - | - |
| 1778300372 | 16.67° C | 100% | 1012.6 hPa | - | - | - | - |
| 1778299471 | 16.67° C | 100% | 1012.7 hPa | - | - | - | - |
| 1778298571 | 17.22° C | 100% | 1012.8 hPa | - | - | - | - |
| 1778297671 | 17.22° C | 100% | 1012.5 hPa | - | - | - | - |
| 1778296771 | 16.67° C | 100% | 1012.6 hPa | - | - | - | - |
| 1778295871 | 16.67° C | 100% | 1012.9 hPa | - | - | - | - |
| 1778294971 | 16.67° C | 100% | 1012.8 hPa | - | - | - | - |
| 1778294070 | 17.22° C | 100% | 1012.9 hPa | - | - | - | - |
| 1778293170 | 17.22° C | 100% | 1013.1 hPa | - | - | - | - |
| 1778292270 | 17.22° C | 100% | 1013.1 hPa | - | - | - | - |
| 1778291370 | 17.22° C | 100% | 1013.4 hPa | - | - | - | - |
| 1778290470 | 17.22° C | 100% | 1013.8 hPa | - | - | - | - |
| 1778289570 | 17.22° C | 100% | 1014 hPa | - | - | - | - |
| 1778288669 | 17.22° C | 100% | 1014 hPa | - | - | - | - |
| 1778287769 | 17.22° C | 100% | 1014.2 hPa | - | - | - | - |
| 1778286869 | 17.22° C | 100% | 1014.6 hPa | - | - | - | - |
| 1778285968 | 17.22° C | 100% | 1014.8 hPa | - | - | - | - |
| 1778285076 | 17.22° C | 100% | 1015.1 hPa | - | - | - | - |
| 1778284176 | 17.22° C | 100% | 1015.2 hPa | - | - | - | - |
* Rain since midnight (hover to see other rain measurements)
** Current wind speed in m/s (hover to see current wind gust speed)